Miscellaneous Local Product
Issued by NWS North Platte, NE

Home | Current Version | Previous Version | Graphics & Text | Print | Product List | Glossary On
Versions: 1 2 3 4 5 6 7 8 9 10 11 12 13 14 15 16 17 18 19 20 21 22 23 24 25 26 27 28 29 30 31 32 33 34 35 36 37 38 39 40 41 42 43 44 45 46 47 48 49 50
000
AXUS43 KLBF 210910
MISLBF


WESTERN AND NORTH CENTRAL NEBRASKA HOURLY WEATHER ROUNDUP
NATIONAL WEATHER SERVICE NORTH PLATTE NE
300 AM CST SUN DEC 21 2014

***STATIONS NOT REPORTING VARIABLES SUCH AS SKY/WEATHER OR
PRESSURE ARE PROVIDED BY THE NEBRASKA DEPARTMENT OF
ROADS...RAWS...AND APRS NETWORKS...AND ARE NOT UNDER
NATIONAL WEATHER SERVICE QUALITY CONTROL***

...OBSERVATIONS IN AND NEAR THE EASTERN PANHANDLE OF NEBRASKA...

CITY           SKY/WX    TMP DP  RH WIND       PRES   REMARKS
PINE RIDGE     CLEAR     31  23  72 SW3       29.75F
CHADRON        CLEAR     25  22  88 SW5       29.76F WCI  19
ALLIANCE       CLEAR     30  24  78 SW13      29.80S WCI  20
SIDNEY         CLOUDY    32  26  78 W3        29.86F
WHITECLAY        N/A     26  21  82 E9          N/A  WCI  17
CRESCENT LAKE    N/A     34  25  68 SW7         N/A  WCI  28
LISCO            N/A     35  26  67 W3          N/A
BIG SPRINGS      N/A     27  25  91 SW6         N/A  WCI  21
$$

...OBSERVATIONS IN NORTH CENTRAL NEBRASKA...

CITY           SKY/WX    TMP DP  RH WIND       PRES   REMARKS
VALENTINE      CLOUDY    27  23  85 CALM      29.80F
THEDFORD       CLOUDY    30  27  88 CALM      29.83F
AINSWORTH      CLOUDY    31  25  78 SW5       29.81F WCI  26
O`NEILL        FOG       26  26 100 S3        29.84F VSB 3/4
BROKEN BOW     PTCLDY    29  25  85 CALM      29.85F
BROWNLEE         N/A     28  23  80 S5          N/A  WCI  23
SPRINGVIEW       N/A     22  20  92 CALM        N/A
BREWSTER         N/A     25  24  96 CALM        N/A
ROSE             N/A     28  28 100 CALM        N/A
SARGENT          N/A     18  17  95 CALM        N/A
COMSTOCK         N/A     33  31  95 W5          N/A  WCI  28
CHAMBERS         N/A     24  24  98 CALM        N/A
EWING            N/A     29  29  98 CALM        N/A
$$

...OBSERVATIONS IN SOUTHWEST NEBRASKA AND FAR NORTHEAST COLORADO...

CITY           SKY/WX    TMP DP  RH WIND       PRES   REMARKS
WRAY           CLOUDY    32  28  86 CALM      29.84F
HOLYOKE        FAIR      36  30  80 SW3       29.85S
IMPERIAL       CLOUDY    35  26  69 W7        29.86F WCI  29
OGALLALA       CLOUDY    27  25  93 W3        29.85F
NORTH PLATTE   MOCLDY    25  23  92 W3        29.87F
MCCOOK         CLOUDY    30  26  85 SW8       29.88F WCI  22
LEXINGTON      PTCLDY    29  28  93 W3        29.87F
PAXTON           N/A     30  28  92 CALM        N/A
BRADY            N/A     26  23  89 CALM        N/A
GOTHENBURG       N/A     27  24  86 CALM        N/A
CALLAWAY         N/A     27  25  91 CALM        N/A
$$

...NORTH PLATTE AREA...

CITY           SKY/WX    TMP DP  RH WIND       PRES   REMARKS
AIRPORT        MOCLDY    25  23  92 W3        29.87F
DOWNTOWN         N/A     26  24  90 CALM        N/A
$$

...SOME WEATHER OBSERVATIONS FROM AROUND THE REGION...

CITY           SKY/WX    TMP DP  RH WIND       PRES   REMARKS
DENVER         PTCLDY    25  19  78 S6        29.86S WCI  18
LARAMIE        PTCLDY    30  18  60 W24G33    29.83F WCI  16
CHEYENNE       CLEAR     35  21  56 W23       29.83F WCI  23
SCOTTSBLUFF    CLEAR     24  19  81 CALM      29.81F
RAPID CITY     CLEAR     28  22  78 CALM      29.69F
PIERRE         CLOUDY    24  22  91 E5        29.77F WCI  18
WINNER         CLOUDY    36  26  67 SE5       29.79F WCI  32
SIOUX FALLS    FOG       31  30  96 S9        29.88F VSB 1/2 WCI  23
OMAHA          CLOUDY    36  35  96 S12       29.99S FOG     WCI  28
GRAND ISLAND   FOG       26  25  96 S7        29.89F VSB 1/2 WCI  18
KANSAS CITY    PTCLDY    35  32  88 S8        30.09R FOG     WCI  29
WICHITA        CLOUDY    42  37  82 S14       30.04F
HAYS           MOCLDY    28  21  74 CALM      29.97R VSB 3/4
LIBERAL        MOCLDY    30  27  86 S7        29.94F WCI  23
GOODLAND       CLOUDY    32  28  85 W3        29.87F
$$



USA.gov is the U.S. government's official web portal to all federal, state and local government web resources and services.